[[{"header":{"parameterUnit":"m.s-1","parameterCategory":1,"la1":30.2992,"la2":30.254,"lo1":-89.0895,"lo2":-89.0443,"dy":0.0025,"dx":0.0025,"nx":19,"ny":19,"refTime":"2026-05-24T03:00:00:Z","depth":0,"parameterNumber":2,"parameterNumberName":"U-component_of_WINDS"},"data":[0,0,0,1.1823,1.1823,1.1824,1.1824,1.183,1.183,0,0,0,0,0,0,0,0,0,0,0,1.1825,1.1825,1.1823,1.1823,1.1824,1.1824,1.1829,1.183,0,0,0,0,0,0,0,0,0,0,0,1.1825,1.1825,1.1825,1.1823,1.1824,1.1824,1.1829,1.1827,0,0,0,0,0,0,0,0,0,0,1.1825,1.183,1.1825,1.1825,1.1823,1.1824,1.1824,1.1827,1.1827,1.1831,0,1.1835,0,1.1832,1.183,1.183,0,0,0,1.1821,1.1829,1.1827,1.1825,1.1823,1.1824,1.1823,1.1827,1.1827,1.1831,1.1835,1.1835,1.1832,1.183,1.183,1.1858,1.1858,0,0,1.1821,1.1826,1.1827,1.1828,1.1828,1.1823,1.1823,1.1827,1.1831,1.1835,1.1835,1.1832,1.183,1.183,1.1858,1.1858,0,0,0,1.1822,1.1826,1.1824,1.1828,1.1828,1.1823,1.1823,1.1831,1.183,1.1835,1.1833,1.183,1.1831,1.1857,1.1858,1.1874,0,0,0,1.1822,1.1827,1.1824,1.1828,1.1828,1.1829,1.1827,1.183,1.183,1.1833,1.183,1.1831,1.1857,1.1858,1.1873,1.188,0,0,0,1.1824,1.1827,1.1828,1.1828,1.1829,1.1829,1.1828,1.183,1.1829,1.183,1.1831,1.1857,1.1858,1.1872,1.1879,1.1889,0,0,0,1.1827,1.1842,1.1829,1.1844,1.1829,1.1839,1.1828,1.1836,1.1839,1.183,1.1857,1.1858,1.1872,1.1878,1.1888,1.1898,1.1903,0,0,1.1849,1.1845,1.1854,1.1842,1.1856,1.1839,1.1856,1.1853,1.1848,1.1855,1.1856,1.1873,1.1879,1.1889,1.193,1.1934,0,0,0,1.1863,1.1869,1.1872,1.1875,1.1874,1.1874,1.1869,1.1868,1.1874,1.1853,1.188,1.1883,1.1889,1.1893,1.1897,1.1901,1.186,1.186,1.186,1.19,1.1894,1.1908,1.1902,1.1906,1.1901,1.1903,1.1901,1.1893,1.19,1.1901,1.1927,1.1932,1.1935,1.1939,1.1907,1.1907,1.1907,1.1907,1.1931,1.1939,1.1929,1.1939,1.1932,1.194,1.1936,1.193,1.1937,1.1925,1.1929,1.1916,1.1939,1.1943,1.1908,1.1908,1.1907,1.1907,1.1907,1.1954,1.1957,1.1956,1.1962,1.1967,1.196,1.1967,1.1961,1.1955,1.1959,1.196,1.196,1.1958,1.196,1.1961,1.1961,1.1961,1.1961,1.1961,1.1978,1.1977,1.1984,1.1985,1.1987,1.1989,1.1985,1.1987,1.1987,1.1981,1.1981,1.1972,1.1943,1.1935,1.1962,1.1962,1.1962,1.1962,1.1961,1.201,1.2002,1.2013,1.2015,1.2016,1.2022,1.2014,1.2018,1.2019,1.2022,1.2013,1.1993,1.1988,1.1985,1.1978,1.2015,1.2015,1.2015,1.2015,1.203,1.2027,1.2037,1.204,1.2043,1.2038,1.205,1.2048,1.2043,1.2043,1.2038,1.2029,1.2026,1.2023,1.2019,1.2013,1.2057,1.2057,1.2057,1.2049,1.2046,1.2058,1.2054,1.2055,1.2056,1.2067,1.2072,1.2066,1.2059,1.2043,1.2041,1.2027,1.2023,1.2015,1.2009,1.1998,0,0]},{"header":{"parameterUnit":"m.s-1","parameterCategory":1,"la1":30.2992,"la2":30.254,"lo1":-89.0895,"lo2":-89.0443,"dy":0.0025,"dx":0.0025,"nx":19,"ny":19,"refTime":"2026-05-24T03:00:00:Z","depth":0,"parameterNumber":3,"parameterNumberName":"V-component_of_WINDS"},"data":[0,0,0,-2.6425,-2.6425,-2.6409,-2.6408,-2.6409,-2.6409,0,0,0,0,0,0,0,0,0,0,0,-2.6444,-2.6444,-2.6425,-2.6425,-2.6409,-2.6408,-2.6409,-2.6409,0,0,0,0,0,0,0,0,0,0,0,-2.6443,-2.6444,-2.6444,-2.6425,-2.6409,-2.6408,-2.6409,-2.6413,0,0,0,0,0,0,0,0,0,0,-2.6426,-2.6456,-2.6444,-2.6444,-2.6425,-2.6409,-2.6408,-2.6413,-2.6413,-2.6425,0,-2.644,0,-2.6425,-2.641,-2.641,0,0,0,-2.6415,-2.6456,-2.644,-2.6445,-2.6425,-2.6409,-2.6413,-2.6413,-2.6413,-2.6425,-2.644,-2.6439,-2.6425,-2.641,-2.6411,-2.6515,-2.6516,0,0,-2.6416,-2.6448,-2.644,-2.644,-2.6444,-2.6414,-2.6413,-2.6412,-2.6431,-2.644,-2.6439,-2.6425,-2.6411,-2.6411,-2.6514,-2.6515,0,0,0,-2.6426,-2.6449,-2.6432,-2.6441,-2.6436,-2.6414,-2.6412,-2.643,-2.6422,-2.6439,-2.6425,-2.6411,-2.6411,-2.6513,-2.6515,-2.6592,0,0,0,-2.6426,-2.6454,-2.6433,-2.6452,-2.6437,-2.6433,-2.6431,-2.6422,-2.6421,-2.6425,-2.6411,-2.6411,-2.6512,-2.6514,-2.6588,-2.6624,0,0,0,-2.644,-2.6456,-2.6458,-2.6454,-2.6448,-2.6432,-2.6424,-2.6421,-2.6413,-2.641,-2.6411,-2.6511,-2.6514,-2.6584,-2.6618,-2.6661,0,0,0,-2.6465,-2.6528,-2.646,-2.6525,-2.6448,-2.6481,-2.6423,-2.6446,-2.6453,-2.6411,-2.6512,-2.6514,-2.6583,-2.6613,-2.6657,-2.6703,-2.6726,0,0,-2.6562,-2.6541,-2.6576,-2.6515,-2.6568,-2.6481,-2.6545,-2.6521,-2.6492,-2.6509,-2.6511,-2.6589,-2.6617,-2.666,-2.6839,-2.6857,0,0,0,-2.6618,-2.6644,-2.6651,-2.6659,-2.6642,-2.6631,-2.6594,-2.6585,-2.6597,-2.6507,-2.6616,-2.6631,-2.6655,-2.6676,-2.6691,-2.6709,-2.6525,-2.6525,-2.6525,-2.6801,-2.676,-2.6816,-2.6773,-2.6781,-2.6742,-2.6745,-2.6726,-2.6683,-2.6709,-2.6714,-2.6827,-2.6853,-2.6864,-2.6884,-2.6735,-2.6735,-2.6735,-2.6735,-2.694,-2.697,-2.691,-2.6943,-2.6899,-2.6926,-2.689,-2.6858,-2.6877,-2.682,-2.6839,-2.6782,-2.6885,-2.69,-2.6741,-2.674,-2.6739,-2.6739,-2.6738,-2.7056,-2.7063,-2.7051,-2.7058,-2.7067,-2.7021,-2.7041,-2.7,-2.6962,-2.6981,-2.6981,-2.698,-2.6973,-2.6984,-2.6984,-2.6984,-2.6985,-2.6985,-2.6985,-2.7181,-2.7165,-2.7187,-2.7174,-2.7173,-2.7167,-2.7128,-2.7126,-2.7113,-2.7082,-2.7081,-2.7035,-2.6903,-2.687,-2.6991,-2.699,-2.6989,-2.6989,-2.6988,-2.7338,-2.7296,-2.733,-2.733,-2.731,-2.7323,-2.727,-2.7269,-2.7261,-2.7273,-2.7222,-2.713,-2.7106,-2.7093,-2.7066,-2.723,-2.723,-2.723,-2.723,-2.7436,-2.7419,-2.7445,-2.7447,-2.7443,-2.7399,-2.7438,-2.7408,-2.737,-2.7363,-2.7333,-2.7293,-2.7282,-2.7264,-2.7248,-2.7222,-2.7422,-2.7423,-2.7423,-2.753,-2.7511,-2.7553,-2.7516,-2.7497,-2.7482,-2.7519,-2.7522,-2.747,-2.743,-2.7356,-2.7348,-2.7283,-2.7265,-2.7224,-2.72,-2.7151,0,0]}]]